THOR ABLESTAR DEB, 125

Orbit data source: Space-Track

THOR ABLESTAR DEB, 125 is space debris in LEO originally from a launch on Thu, 29 Jun 1961 UTC launched from the Air Force Eastern Test Range (AFETR). Debris objects in space refer to the collection of defunct objects orbiting the Earth. Examples of debris include non-operational satellites, rocket bodies, and fragments generated from explosions, collisions, or faulty payload assembly.

Loading next visibility...
THOR ABLESTAR DEB details
Identifier
125, 1961-015K
Orbit
LEO
Last TLE update12 hours ago
Origin
Flag of USUSAF SSD (US)
ManufacturerUnknown
MissionSpacecraft
Bus & MotorUnknown
MassUnknown
Launch date (UTC)
1961-06-29 (64 years ago)
Launch vehicleUnknown
Launch site
Air Force Eastern Test Range (AFETR)
Object type
Payload
Rocket body
Debris
Shape & HBRUnknown
Radar Cross SectionSmall (<0.1 m²)

Expand to show TLE details & history

TLE from 12 hours ago
0 THOR ABLESTAR DEB
1 00125U 61015K   25014.75758308  .00000624  00000-0  41139-3 0  9999
2 00125  66.8753 146.6683 0067489  83.7032 277.1737 14.07115541244302
Epoch: 2025-01-14T18:10Z
Definitive object data (Epoch: 2025-01-14T18:10:55.178Z)
Latitude-0.00001°
Longitude119.47869°
Altitude865.574 km
Speed7.423 km/s
True Right ascension09h 46m 40s
True Declination0° 00' 00"
Sunlit
Object was in full shadow at TLE epoch
Visualization TLE readout
Latitude-64.7607°
Longitude53.96001°
Altitude939.768 km
Speed7.358 km/s
Apparent Right ascension19h 56m 25s
Apparent Declination-79° 10' 46"
Sunlit
Object is in daylight
Visualization observer readout
Local Sidereal Time06:23:55
Azimuth186.545° SSW
Elevation-49.701°
Doppler factor1
Orbital elements
Apogee altitude916.532 km
Perigee altitude818.73 km
Semi-major axis7,245.768 km
Eccentricity0.0067489
Inclination66.8753°
RAAN146.6683°
Arg. of periapsis83.7032°
True anomaly276.4056°
Mean anomaly277.1737°
Eccentric anomaly276.78973°
Mean motion3.51898 °/min
BSTAR0.00041139
Orbital period102.3 mins
Loading maneuver chart data...

THOR ABLESTAR DEB Visibility forecast

Observer location: undefined°, undefined

Span
Click to sort rows by Start time (UTC) header in descending order
Start Az.
Max El. time (UTC)
Max El. Az.
Max El.
End time (UTC)
End Az.
10 mins2025-01-15 09:38:39.599Z180.023° SSW2025-01-15 09:43:39.599Z111.02° ESE33.966°2025-01-15 09:48:39.599Z43.166° NE
7 mins2025-01-15 11:25:39.599Z261.171° W2025-01-15 11:28:39.599Z305.02° NW25.939°2025-01-15 11:32:39.599Z2.666° NNE
9 mins2025-01-15 18:36:39.599Z352.94° N2025-01-15 18:40:39.599Z56.212° ENE31.184°2025-01-15 18:45:39.599Z120.218° SE
7 mins2025-01-15 20:22:39.599Z297.583° NW2025-01-15 20:25:39.599Z248.738° W27.994°2025-01-15 20:29:39.599Z194.233° SSW
|